QPF
0.00 0.00 0.00 0.00 0.00 0.00 0.00 0.00 0.00 0.00 0.00 0.00 0.00 0.00 0.00 0.00 0.00 0.00 0.00 0.00 0.00 0.00 0.00 0.00 0.00 0.01 0.02 0.01 0.02 0.01 0.00 0.00 0.00 0.00 0.00 0.00 0.00 0.00 0.00 0.00 0.00 0.00 0.00
0.00 0.00 0.00 0.00 0.00 0.00 0.00 0.00 0.00 0.00 0.00 0.00 0.00 0.00 0.00 0.00 0.00 0.00 0.00 0.00 0.00 0.00 0.00 0.00 0.00 0.00 0.00 0.01 0.02 0.05 0.05 0.02 0.00 0.00 0.00 0.00 0.00 0.00 0.00 0.00 0.00 0.00 0.00
0.00 0.00 0.00 0.00 0.00 0.00 0.00 0.00 0.00 0.00 0.00 0.00 0.00 0.00 0.00 0.00 0.00 0.00 0.00 0.00 0.00 0.00 0.00 0.00 0.00 0.00 0.00 0.00 0.00 0.01 0.05 0.06 0.06 0.05 0.01 0.00 0.00 0.00 0.00 0.00 0.00 0.00 0.00
0.00 0.00 0.00 0.00 0.00 0.00 0.00 0.00 0.00 0.00 0.00 0.00 0.00 0.00 0.00 0.00 0.00 0.00 0.00 0.00 0.00 0.00 0.00 0.00 0.00 0.00 0.00 0.00 0.00 0.00 0.00 0.01 0.02 0.06 0.09 0.03 0.00 0.00 0.00 0.00 0.00 0.00 0.00
0.00 0.00 0.00 0.00 0.00 0.00 0.00 0.00 0.00 0.00 0.00 0.00 0.00 0.00 0.00 0.00 0.00 0.00 0.00 0.00 0.00 0.00 0.00 0.00 0.00 0.00 0.00 0.00 0.00 0.00 0.00 0.00 0.00 0.01 0.04 0.09 0.07 0.01 0.00 0.00 0.00 0.00 0.00
0.00 0.00 0.00 0.00 0.00 0.00 0.00 0.00 0.00 0.00 0.00 0.00 0.00 0.00 0.00 0.00 0.00 0.00 0.00 0.00 0.00 0.00 0.00 0.00 0.00 0.00 0.00 0.00 0.00 0.00 0.00 0.00 0.00 0.00 0.01 0.03 0.09 0.12 0.07 0.01 0.00 0.00 0.00
0.00 0.00 0.00 0.00 0.00 0.00 0.00 0.00 0.00 0.00 0.00 0.00 0.00 0.00 0.00 0.00 0.00 0.00 0.00 0.00 0.00 0.00 0.00 0.00 0.00 0.00 0.00 0.00 0.00 0.00 0.00 0.00 0.00 0.00 0.00 0.00 0.00 0.02 0.09 0.15 0.08 0.01 0.01
0.00 0.00 0.00 0.00 0.00 0.00 0.00 0.00 0.00 0.00 0.00 0.00 0.00 0.00 0.00 0.00 0.00 0.00 0.00 0.00 0.00 0.00 0.00 0.00 0.00 0.00 0.00 0.00 0.00 0.00 0.00 0.00 0.00 0.00 0.00 0.00 0.00 0.00 0.00 0.03 0.10 0.13 0.05
0.02 0.03 0.02 0.02 0.03 0.02 0.00 0.00 0.00 0.00 0.00 0.00 0.00 0.00 0.00 0.00 0.00 0.00 0.00 0.00 0.00 0.00 0.00 0.00 0.00 0.00 0.00 0.00 0.00 0.00 0.00 0.00 0.00 0.00 0.00 0.00 0.00 0.00 0.00 0.00 0.01 0.05 0.11
0.16 0.16 0.14 0.11 0.08 0.04 0.01 0.00 0.00 0.00 0.00 0.00 0.00 0.00 0.00 0.00 0.00 0.00 0.00 0.00 0.00 0.00 0.00 0.00 0.00 0.00 0.00 0.00 0.00 0.00 0.00 0.00 0.00 0.00 0.00 0.00 0.00 0.00 0.00 0.01 0.01 0.01 0.06
0.19 0.21 0.20 0.12 0.07 0.03 0.02 0.01 0.00 0.00 0.00 0.00 0.00 0.00 0.00 0.00 0.00 0.00 0.00 0.00 0.00 0.00 0.00 0.00 0.00 0.00 0.00 0.00 0.00 0.00 0.00 0.00 0.00 0.00 0.00 0.00 0.00 0.00 0.00 0.00 0.00 0.00 0.01
0.08 0.06 0.04 0.01 0.00 0.00 0.00 0.00 0.00 0.00 0.00 0.00 0.00 0.00 0.00 0.00 0.00 0.00 0.00 0.00 0.00 0.00 0.00 0.00 0.00 0.00 0.00 0.00 0.00 0.00 0.00 0.00 0.00 0.01 0.02 0.01 0.01 0.01 0.01 0.01 0.00 0.00 0.00
0.04 0.02 0.01 0.00 0.00 0.00 0.00 0.00 0.00 0.00 0.00 0.00 0.00 0.00 0.00 0.00 0.00 0.00 0.00 0.00 0.00 0.00 0.01 0.00 0.00 0.00 0.00 0.00 0.00 0.00 0.00 0.00 0.00 0.00 0.01 0.01 0.01 0.01 0.02 0.01 0.00 0.00 0.00
0.02 0.02 0.01 0.00 0.00 0.00 0.00 0.00 0.00 0.00 0.00 0.00 0.00 0.00 0.00 0.00 0.00 0.00 0.00 0.00 0.01 0.00 0.00 0.01 0.00 0.00 0.00 0.00 0.00 0.00 0.00 0.00 0.00 0.00 0.00 0.00 0.00 0.01 0.03 0.03 0.01 0.01 0.01
0.02 0.00 0.00 0.00 0.00 0.00 0.00 0.00 0.00 0.00 0.00 0.00 0.00 0.00 0.00 0.00 0.00 0.00 0.01 0.02 0.02 0.01 0.01 0.00 0.01 0.01 0.01 0.00 0.00 0.00 0.00 0.00 0.00 0.00 0.00 0.00 0.00 0.00 0.01 0.01 0.00 0.01 0.00
0.00 0.00 0.00 0.00 0.00 0.00 0.00 0.00 0.00 0.00 0.00 0.00 0.00 0.00 0.00 0.00 0.00 0.00 0.00 0.00 0.01 0.01 0.02 0.01 0.01 0.01 0.00 0.00 0.00 0.00 0.00 0.00 0.00 0.00 0.00 0.00 0.00 0.00 0.00 0.00 0.00 0.00 0.00
0.00 0.00 0.00 0.00 0.00 0.00 0.00 0.00 0.00 0.00 0.00 0.00 0.00 0.00 0.00 0.00 0.00 0.00 0.00 0.00 0.00 0.00 0.00 0.00 0.00 0.00 0.00 0.00 0.00 0.00 0.00 0.00 0.00 0.00 0.00 0.00 0.00 0.00 0.00 0.00 0.00 0.00 0.00
0.00 0.00 0.00 0.00 0.00 0.00 0.00 0.00 0.00 0.00 0.00 0.00 0.00 0.00 0.00 0.00 0.00 0.00 0.00 0.00 0.00 0.00 0.00 0.00 0.00 0.00 0.00 0.00 0.00 0.00 0.00 0.00 0.00 0.00 0.00 0.00 0.00 0.00 0.00 0.00 0.00 0.00 0.00
0.00 0.00 0.00 0.00 0.00 0.00 0.00 0.00 0.00 0.00 0.00 0.00 0.00 0.00 0.00 0.00 0.00 0.00 0.00 0.00 0.00 0.00 0.00 0.00 0.00 0.00 0.00 0.00 0.00 0.00 0.00 0.00 0.00 0.00 0.00 0.00 0.00 0.00 0.00 0.00 0.00 0.00 0.00
0.00 0.00 0.00 0.00 0.00 0.00 0.00 0.00 0.00 0.00 0.00 0.00 0.00 0.00 0.00 0.00 0.00 0.00 0.00 0.00 0.00 0.00 0.00 0.00 0.00 0.00 0.00 0.00 0.00 0.00 0.00 0.00 0.00 0.00 0.00 0.00 0.00 0.00 0.00 0.00 0.00 0.00 0.00
0.00 0.00 0.00 0.00 0.00 0.00 0.00 0.00 0.00 0.00 0.00 0.00 0.00 0.00 0.00 0.01 0.01 0.00 0.00 0.00 0.00 0.00 0.00 0.00 0.00 0.00 0.00 0.00 0.00 0.00 0.00 0.00 0.00 0.00 0.00 0.00 0.00 0.00 0.00 0.00 0.00 0.00 0.00
0.00 0.00 0.00 0.00 0.00 0.00 0.00 0.00 0.00 0.00 0.00 0.00 0.00 0.00 0.00 0.01 0.00 0.00 0.00 0.00 0.00 0.00 0.00 0.00 0.00 0.00 0.00 0.00 0.00 0.00 0.00 0.00 0.00 0.00 0.00 0.00 0.00 0.00 0.00 0.00 0.00 0.00 0.00
0.00 0.00 0.00 0.00 0.00 0.00 0.00 0.00 0.00 0.00 0.00 0.00 0.00 0.00 0.00 0.00 0.00 0.00 0.00 0.00 0.00 0.00 0.00 0.00 0.00 0.00 0.00 0.00 0.00 0.00 0.00 0.00 0.00 0.00 0.00 0.00 0.00 0.00 0.00 0.00 0.00 0.00 0.00
0.00 0.00 0.00 0.00 0.00 0.00 0.00 0.00 0.00 0.00 0.00 0.00 0.00 0.00 0.00 0.00 0.00 0.00 0.00 0.00 0.00 0.00 0.00 0.00 0.00 0.00 0.00 0.00 0.00 0.00 0.00 0.00 0.00 0.00 0.00 0.00 0.00 0.00 0.00 0.00 0.00 0.00 0.00
0.00 0.00 0.00 0.00 0.00 0.00 0.00 0.00 0.00 0.00 0.00 0.00 0.00 0.00 0.00 0.00 0.00 0.00 0.00 0.00 0.00 0.00 0.00 0.00 0.00 0.00 0.00 0.00 0.00 0.00 0.00 0.00 0.00 0.00 0.00 0.00 0.00 0.00 0.00 0.00 0.00 0.00 0.00
0.00 0.00 0.00 0.00 0.00 0.00 0.00 0.00 0.00 0.00 0.00 0.00 0.00 0.00 0.00 0.00 0.00 0.00 0.00 0.00 0.00 0.00 0.00 0.00 0.00 0.00 0.00 0.00 0.00 0.00 0.00 0.00 0.00 0.00 0.00 0.00 0.00 0.00 0.00 0.00 0.00 0.00 0.00
MSLP
1018.92 1019.12 1019.29 1019.50 1019.60 1019.75 1019.86 1020.00 1020.04 1020.16 1020.24 1020.20 1020.19 1020.14 1019.98 1019.89 1019.85 1019.76 1019.70 1019.68 1019.65 1019.51 1019.47 1019.44 1019.45 1019.51 1019.60 1019.76 1019.89 1019.90 1019.96 1020.00 1020.04 1020.20 1020.26 1020.50 1020.58 1020.47 1020.30 1020.18 1020.21 1020.18 1019.94
1018.47 1018.84 1019.11 1019.21 1019.35 1019.59 1019.76 1019.92 1019.99 1020.06 1020.08 1020.07 1020.05 1019.98 1019.89 1019.75 1019.71 1019.64 1019.51 1019.49 1019.55 1019.43 1019.47 1019.35 1019.25 1019.25 1019.34 1019.30 1019.39 1019.46 1019.70 1019.77 1019.83 1019.89 1019.93 1020.11 1020.34 1020.46 1020.43 1020.26 1020.22 1020.23 1020.31
1018.16 1018.37 1018.84 1018.99 1019.02 1019.11 1019.38 1019.69 1019.84 1019.95 1020.01 1019.94 1019.96 1019.72 1019.58 1019.50 1019.36 1019.29 1019.16 1019.25 1019.20 1019.15 1019.10 1019.01 1019.06 1019.18 1019.30 1019.24 1019.29 1019.29 1019.35 1019.39 1019.30 1019.42 1019.57 1019.73 1019.88 1020.25 1020.26 1020.32 1020.25 1020.20 1020.32
1017.99 1018.19 1018.46 1018.46 1018.58 1018.87 1019.18 1019.40 1019.67 1019.78 1019.83 1019.82 1019.73 1019.51 1019.20 1019.12 1019.07 1018.96 1018.98 1019.05 1019.02 1018.86 1018.87 1018.89 1018.96 1019.11 1019.35 1019.34 1019.31 1019.35 1019.37 1019.42 1019.28 1019.10 1019.18 1019.40 1019.49 1019.75 1019.88 1019.96 1020.09 1020.23 1020.25
1017.65 1017.86 1017.96 1017.96 1018.16 1018.56 1018.83 1019.07 1019.29 1019.35 1019.52 1019.41 1019.30 1019.26 1019.18 1019.09 1018.74 1018.66 1018.65 1018.88 1018.91 1018.81 1018.83 1018.81 1019.08 1019.21 1019.35 1019.42 1019.39 1019.37 1019.40 1019.57 1019.59 1019.40 1019.27 1019.13 1019.23 1019.35 1019.58 1019.72 1019.78 1020.05 1020.35
1017.32 1017.64 1017.68 1017.73 1017.89 1018.35 1018.61 1018.69 1018.91 1019.06 1019.18 1019.15 1019.14 1019.12 1018.98 1019.03 1018.75 1018.91 1018.79 1018.77 1018.79 1018.84 1019.01 1019.10 1019.33 1019.52 1019.53 1019.66 1019.72 1019.77 1019.59 1019.63 1019.60 1019.49 1019.35 1019.14 1018.96 1018.96 1019.00 1019.36 1019.47 1019.66 1019.88
1016.79 1017.30 1017.60 1017.64 1017.74 1018.14 1018.22 1018.32 1018.58 1018.88 1019.07 1019.11 1019.35 1019.23 1019.09 1018.82 1018.92 1018.89 1018.83 1018.74 1018.82 1018.92 1019.11 1019.19 1019.28 1019.47 1019.89 1019.97 1020.07 1020.08 1019.98 1019.80 1019.68 1019.61 1019.39 1019.28 1019.06 1018.95 1018.79 1018.81 1018.94 1019.17 1019.49
1016.25 1016.69 1017.09 1017.43 1017.54 1017.81 1018.01 1018.24 1018.46 1018.68 1018.84 1018.98 1019.39 1019.75 1019.51 1019.27 1019.09 1019.03 1019.05 1019.03 1019.22 1019.24 1019.36 1019.50 1019.77 1020.10 1020.40 1020.41 1020.47 1020.37 1020.25 1020.02 1019.91 1019.64 1019.48 1019.36 1019.22 1019.07 1018.84 1018.58 1018.49 1018.56 1018.86
1016.18 1016.47 1016.74 1017.13 1017.43 1017.69 1018.05 1018.23 1018.47 1018.70 1019.03 1019.22 1019.32 1019.77 1019.86 1019.98 1019.76 1019.32 1019.38 1019.37 1019.55 1019.71 1019.86 1020.00 1020.39 1020.85 1020.94 1021.10 1021.07 1020.92 1020.69 1020.46 1020.21 1019.84 1019.62 1019.37 1019.17 1018.99 1018.82 1018.49 1018.34 1018.23 1018.35
1016.58 1016.75 1017.11 1017.23 1017.57 1018.02 1018.13 1018.44 1018.65 1018.85 1019.15 1019.38 1019.45 1019.45 1019.62 1019.94 1020.05 1020.01 1019.70 1019.85 1019.93 1019.99 1020.29 1020.52 1020.78 1021.17 1021.26 1021.37 1021.38 1021.28 1020.96 1020.55 1020.07 1019.72 1019.51 1019.41 1019.13 1018.90 1018.86 1018.65 1018.47 1018.31 1018.26
1016.53 1016.83 1017.32 1017.41 1017.70 1017.96 1018.30 1018.48 1018.84 1018.95 1019.16 1019.39 1019.51 1019.66 1019.67 1019.83 1020.01 1020.24 1020.08 1020.10 1020.19 1020.33 1020.50 1020.70 1020.92 1021.16 1021.17 1021.55 1021.56 1021.33 1021.08 1020.69 1020.30 1019.53 1019.47 1019.42 1019.41 1019.22 1019.04 1018.76 1018.46 1018.24 1018.15
1016.71 1017.13 1017.59 1017.77 1017.59 1018.01 1018.31 1018.55 1018.76 1018.88 1019.03 1019.17 1019.25 1019.69 1019.71 1019.85 1019.77 1019.88 1020.08 1020.14 1020.31 1020.77 1020.92 1021.08 1021.28 1021.27 1021.36 1021.66 1021.63 1021.56 1021.15 1020.89 1020.62 1020.28 1019.86 1019.83 1019.80 1019.41 1018.96 1018.00 1017.85 1017.99 1018.08
1017.01 1016.74 1017.77 1017.96 1017.68 1018.08 1018.44 1018.54 1018.72 1018.92 1018.92 1019.10 1019.01 1019.42 1019.33 1019.47 1019.50 1019.52 1019.55 1019.66 1020.09 1020.65 1021.13 1021.44 1021.70 1021.64 1021.60 1021.82 1021.92 1021.75 1021.44 1021.18 1021.04 1020.73 1020.48 1020.52 1020.53 1020.09 1019.33 1018.37 1018.05 1017.96 1017.86
1016.71 1016.46 1016.68 1017.18 1017.46 1017.86 1017.94 1018.41 1018.73 1018.98 1019.08 1018.79 1018.99 1019.06 1018.99 1019.07 1019.06 1019.13 1019.05 1019.36 1019.60 1020.05 1020.75 1021.26 1021.83 1021.86 1021.91 1021.88 1021.92 1021.92 1021.92 1021.53 1021.27 1021.22 1020.91 1021.18 1021.11 1020.59 1020.18 1019.32 1018.87 1018.96 1018.22
1016.34 1016.24 1016.38 1017.21 1017.65 1017.78 1017.87 1018.39 1018.83 1018.85 1018.87 1018.76 1018.84 1018.90 1018.85 1018.78 1018.55 1018.57 1018.54 1018.57 1018.88 1019.56 1020.24 1021.00 1021.62 1021.91 1021.85 1022.01 1021.92 1022.05 1022.29 1021.85 1021.53 1021.49 1021.30 1021.47 1021.31 1020.96 1020.69 1020.14 1019.70 1019.71 1019.40
1016.51 1016.76 1017.33 1017.61 1017.86 1018.09 1018.09 1018.35 1018.46 1018.56 1018.77 1018.54 1018.55 1018.69 1018.59 1018.49 1018.47 1018.53 1018.54 1018.42 1018.32 1018.85 1019.81 1020.64 1021.36 1021.69 1021.85 1022.01 1022.07 1021.98 1022.50 1022.24 1021.98 1021.96 1021.78 1021.85 1021.74 1021.36 1021.28 1020.98 1020.44 1020.19 1020.28
1017.10 1017.05 1017.33 1017.69 1017.98 1018.12 1018.43 1018.61 1018.50 1018.49 1018.47 1018.48 1018.52 1018.33 1018.37 1018.43 1018.45 1018.70 1018.69 1018.71 1018.65 1019.03 1019.61 1020.84 1021.40 1021.74 1021.98 1022.07 1022.14 1022.26 1022.59 1022.81 1022.43 1022.23 1021.98 1021.98 1022.06 1021.60 1021.33 1021.39 1021.14 1020.84 1020.90
1017.00 1017.27 1017.46 1017.78 1018.26 1018.32 1018.46 1018.89 1018.59 1018.36 1018.54 1018.59 1018.55 1018.42 1018.21 1018.51 1018.65 1018.84 1018.92 1018.89 1019.09 1019.34 1019.79 1020.55 1021.46 1021.95 1021.96 1021.96 1022.21 1022.43 1022.77 1022.81 1022.65 1022.45 1022.11 1021.95 1022.04 1022.20 1021.96 1021.47 1021.57 1021.49 1021.45
1017.07 1017.29 1017.52 1018.01 1018.30 1018.52 1018.78 1018.85 1018.64 1018.56 1018.51 1018.45 1018.54 1018.36 1018.36 1018.44 1018.74 1018.88 1018.98 1019.25 1019.40 1019.73 1019.88 1020.29 1021.26 1021.71 1022.04 1021.98 1022.24 1022.65 1022.72 1022.86 1022.69 1022.63 1022.75 1022.41 1022.06 1022.20 1022.04 1022.21 1021.89 1021.88 1021.95
1017.09 1017.48 1017.86 1018.15 1018.50 1018.63 1018.79 1018.65 1018.90 1018.79 1018.71 1018.76 1018.52 1018.52 1018.52 1018.46 1018.72 1018.96 1018.98 1019.41 1019.63 1019.91 1020.13 1020.66 1020.92 1021.48 1021.61 1021.94 1022.25 1022.76 1023.01 1023.03 1023.05 1023.02 1023.19 1023.05 1022.55 1022.48 1022.54 1022.41 1022.34 1022.26 1022.26
1017.37 1017.72 1018.07 1018.39 1018.46 1018.64 1018.76 1018.76 1018.96 1018.76 1018.98 1018.94 1018.75 1018.76 1018.87 1018.82 1018.90 1018.87 1019.05 1019.39 1019.69 1020.01 1020.54 1021.00 1021.22 1021.26 1021.73 1022.04 1022.42 1022.96 1023.12 1023.18 1023.23 1023.32 1023.33 1023.64 1023.54 1022.86 1022.89 1022.81 1022.70 1022.45 1022.39
1017.49 1017.87 1018.11 1018.31 1018.56 1018.72 1018.75 1018.70 1018.75 1018.87 1018.87 1018.97 1019.08 1019.12 1019.07 1019.00 1019.12 1019.13 1019.30 1019.40 1019.65 1020.09 1020.57 1020.66 1021.02 1021.55 1021.80 1022.35 1022.73 1023.28 1023.56 1023.63 1023.84 1023.78 1023.40 1023.60 1023.61 1023.14 1023.18 1022.95 1022.76 1022.63 1022.53
1017.59 1017.88 1018.10 1018.24 1018.42 1018.55 1018.57 1018.65 1018.65 1018.72 1018.86 1019.09 1019.26 1019.33 1019.31 1019.37 1019.50 1019.47 1019.74 1020.03 1019.92 1020.10 1020.46 1020.57 1020.71 1021.55 1021.96 1022.07 1022.64 1023.19 1023.56 1023.66 1023.61 1023.81 1023.58 1023.88 1023.76 1023.42 1023.37 1023.01 1022.86 1022.66 1022.65
1017.63 1017.86 1017.95 1018.05 1018.26 1018.36 1018.44 1018.52 1018.57 1018.79 1019.04 1019.18 1019.32 1019.45 1019.57 1019.70 1019.83 1019.95 1020.23 1020.52 1020.49 1020.63 1020.93 1020.65 1021.09 1021.43 1021.95 1022.21 1022.63 1022.73 1023.34 1023.67 1023.64 1023.72 1023.77 1024.00 1023.93 1023.78 1023.64 1023.31 1022.75 1022.80 1022.83
1017.28 1017.54 1017.74 1017.92 1018.09 1018.21 1018.22 1018.37 1018.71 1018.95 1019.19 1019.43 1019.56 1019.63 1019.67 1019.79 1019.94 1020.16 1020.51 1020.78 1020.76 1020.88 1021.00 1020.73 1021.18 1021.26 1021.57 1022.00 1022.65 1022.99 1023.46 1023.67 1023.82 1023.78 1023.88 1023.95 1024.19 1024.07 1023.86 1023.72 1023.51 1023.22 1023.17
1016.85 1017.29 1017.65 1017.61 1017.80 1018.04 1018.14 1018.28 1018.65 1018.96 1019.28 1019.53 1019.67 1019.65 1019.74 1019.84 1019.92 1020.07 1020.49 1020.87 1020.92 1020.97 1021.06 1021.52 1021.65 1021.68 1022.06 1022.28 1022.26 1022.89 1023.21 1023.61 1023.87 1023.92 1023.77 1024.15 1024.36 1024.35 1024.29 1023.98 1023.81 1023.76 1023.69
Thickness
5694 5693 5693 5693 5693 5692 5691 5690 5690 5688 5687 5687 5686 5685 5685 5684 5682 5682 5681 5679 5677 5674 5672 5670 5667 5662 5658 5652 5648 5645 5641 5638 5635 5630 5626 5619 5615 5613 5611 5609 5604 5601 5601
5694 5691 5690 5690 5690 5688 5686 5685 5685 5685 5684 5683 5682 5681 5681 5680 5679 5678 5677 5676 5674 5671 5667 5664 5662 5657 5653 5650 5646 5642 5637 5634 5630 5626 5623 5619 5613 5608 5604 5603 5600 5596 5593
5691 5691 5687 5687 5687 5686 5685 5682 5681 5680 5679 5679 5679 5679 5679 5678 5677 5675 5675 5673 5671 5669 5666 5663 5660 5654 5649 5646 5642 5639 5634 5630 5627 5623 5620 5616 5612 5604 5601 5597 5595 5593 5588
5686 5687 5686 5687 5685 5683 5680 5679 5677 5676 5675 5675 5675 5676 5676 5675 5674 5673 5672 5670 5668 5665 5663 5660 5656 5650 5645 5640 5637 5633 5629 5625 5623 5621 5616 5611 5608 5603 5599 5595 5590 5586 5584
5682 5683 5684 5684 5683 5680 5677 5676 5674 5675 5672 5672 5673 5673 5671 5671 5671 5670 5669 5666 5663 5661 5658 5654 5649 5645 5640 5636 5632 5628 5624 5619 5614 5612 5610 5607 5603 5598 5594 5590 5587 5582 5577
5678 5677 5678 5678 5678 5675 5673 5673 5671 5670 5668 5668 5668 5667 5667 5664 5665 5662 5661 5659 5657 5654 5650 5646 5641 5635 5631 5627 5624 5619 5618 5613 5609 5606 5604 5601 5600 5596 5592 5586 5583 5579 5576
5675 5671 5670 5672 5671 5668 5669 5668 5666 5662 5661 5661 5658 5659 5660 5660 5658 5657 5655 5653 5649 5647 5642 5639 5635 5630 5622 5618 5614 5610 5607 5605 5602 5599 5597 5595 5593 5591 5589 5585 5580 5577 5573
5672 5669 5665 5664 5664 5664 5663 5661 5659 5657 5655 5653 5649 5645 5646 5649 5649 5649 5646 5643 5639 5635 5630 5627 5623 5618 5613 5610 5606 5603 5600 5598 5595 5594 5591 5588 5585 5583 5582 5581 5580 5576 5571
5665 5662 5660 5657 5657 5655 5653 5653 5652 5650 5646 5644 5643 5637 5635 5632 5634 5639 5636 5634 5629 5625 5619 5615 5610 5604 5600 5596 5595 5592 5590 5588 5587 5586 5584 5582 5580 5577 5575 5576 5575 5574 5571
5654 5652 5648 5648 5646 5642 5644 5642 5642 5640 5638 5634 5633 5632 5629 5625 5623 5622 5624 5620 5616 5614 5608 5604 5600 5594 5591 5588 5584 5580 5579 5579 5580 5580 5578 5575 5574 5572 5569 5568 5567 5567 5567
5648 5645 5640 5637 5636 5635 5634 5633 5630 5630 5628 5627 5624 5622 5620 5615 5612 5610 5610 5608 5604 5602 5599 5594 5591 5586 5584 5579 5576 5574 5572 5572 5571 5573 5570 5568 5565 5565 5564 5564 5564 5562 5562
5638 5634 5631 5629 5631 5628 5626 5623 5622 5621 5619 5618 5615 5611 5611 5608 5605 5601 5598 5596 5594 5588 5586 5583 5579 5578 5575 5570 5567 5564 5564 5563 5561 5560 5560 5558 5556 5557 5558 5564 5564 5560 5558
5625 5626 5617 5617 5620 5617 5615 5614 5613 5610 5609 5608 5607 5602 5602 5599 5596 5595 5593 5592 5585 5578 5575 5571 5567 5565 5564 5560 5557 5555 5554 5552 5550 5549 5548 5545 5543 5545 5548 5553 5555 5556 5555
5617 5617 5616 5613 5611 5608 5608 5604 5602 5599 5597 5598 5595 5594 5595 5592 5590 5588 5588 5584 5582 5578 5569 5565 5557 5555 5552 5550 5547 5545 5543 5542 5541 5539 5539 5533 5533 5535 5536 5542 5544 5541 5547
5609 5608 5608 5602 5599 5598 5598 5594 5590 5588 5588 5587 5585 5583 5584 5583 5584 5582 5581 5579 5577 5574 5568 5555 5550 5545 5543 5540 5539 5536 5531 5532 5532 5530 5530 5526 5526 5527 5528 5532 5534 5532 5533
5598 5596 5591 5588 5586 5584 5584 5582 5580 5578 5576 5577 5576 5574 5573 5573 5573 5570 5569 5569 5570 5567 5563 5548 5540 5536 5532 5530 5528 5528 5520 5520 5521 5518 5518 5516 5516 5518 5517 5518 5522 5523 5521
5580 5581 5579 5576 5574 5572 5570 5568 5567 5566 5566 5564 5562 5563 5562 5561 5560 5556 5555 5554 5554 5551 5548 5533 5529 5524 5522 5520 5518 5516 5511 5507 5511 5508 5509 5509 5506 5510 5512 5509 5510 5513 5510
5571 5569 5568 5565 5561 5560 5558 5553 5554 5555 5553 5551 5549 5550 5549 5545 5542 5540 5539 5538 5536 5533 5530 5525 5515 5510 5511 5511 5508 5505 5500 5498 5500 5498 5499 5501 5499 5496 5498 5503 5502 5502 5501
5559 5557 5556 5552 5549 5546 5543 5542 5542 5541 5540 5540 5536 5537 5536 5532 5529 5528 5527 5524 5522 5518 5516 5515 5505 5501 5499 5500 5498 5493 5491 5491 5491 5490 5487 5491 5493 5491 5492 5489 5492 5492 5491
5549 5546 5543 5540 5536 5534 5532 5532 5528 5527 5527 5524 5525 5523 5522 5522 5518 5515 5515 5511 5509 5506 5504 5499 5499 5493 5493 5491 5488 5483 5482 5481 5481 5480 5478 5478 5482 5483 5480 5480 5481 5482 5480
5536 5533 5530 5527 5525 5523 5521 5520 5517 5517 5514 5512 5512 5510 5507 5507 5506 5505 5503 5500 5497 5494 5488 5483 5484 5486 5483 5481 5479 5472 5473 5473 5474 5472 5471 5467 5468 5475 5472 5472 5471 5472 5471
5525 5522 5520 5517 5513 5511 5510 5510 5508 5504 5504 5501 5498 5497 5496 5495 5493 5493 5491 5490 5487 5483 5478 5479 5476 5475 5472 5467 5466 5462 5460 5460 5460 5460 5462 5460 5460 5464 5462 5463 5462 5462 5462
5514 5512 5509 5507 5504 5501 5501 5498 5497 5494 5491 5488 5485 5483 5482 5480 5478 5477 5475 5472 5474 5472 5469 5469 5471 5464 5460 5461 5457 5452 5451 5450 5453 5450 5452 5450 5451 5452 5452 5454 5453 5453 5452
5502 5500 5499 5497 5494 5492 5491 5488 5486 5481 5478 5475 5472 5470 5467 5465 5464 5462 5459 5457 5457 5456 5454 5459 5457 5455 5452 5452 5449 5449 5445 5443 5444 5442 5442 5438 5440 5441 5442 5444 5444 5443 5441
5493 5491 5490 5488 5485 5483 5482 5479 5473 5468 5465 5461 5459 5458 5456 5453 5452 5451 5447 5445 5445 5444 5444 5447 5444 5446 5446 5443 5439 5439 5435 5433 5434 5435 5433 5433 5430 5431 5431 5432 5432 5431 5429
5486 5483 5480 5479 5477 5473 5472 5469 5463 5458 5455 5451 5449 5447 5446 5443 5444 5443 5437 5434 5435 5435 5435 5433 5435 5436 5434 5433 5433 5431 5429 5425 5425 5424 5426 5422 5422 5421 5419 5421 5421 5420 5418